Location: Killarney Provincial Park Observatory
(46.0124°N, 81.4000°W)
Time: 14:23:02
(UTC-04:00)

Iridium 22 - Visible Passes

Search period start: 26 May 2016 00:00
Search period end: 05 June 2016 00:00
Orbit: 776 x 779 km, 86.4° (Epoch: 26 May)

Date Brightness Start Highest point End Pass type
(mag) Time Alt. Az. Time Alt. Az. Time Alt. Az.
26 May 5.7 00:59:41 10° N 01:04:50 61° W 01:06:05 47° SW visible
26 May 7.8 22:48:43 10° NE 22:49:41 10° ENE 22:50:38 10° ENE visible
27 May 5.5 00:26:06 10° N 00:31:21 77° E 00:32:43 50° SSE visible
27 May 7.6 02:08:36 10° NW 02:11:22 15° WNW 02:13:11 12° W visible
27 May 6.1 23:52:44 10° N 23:57:43 43° E 23:59:21 33° SE visible
28 May 7.0 01:33:58 10° NNW 01:38:10 25° W 01:39:50 21° WSW visible
28 May 6.9 23:19:39 10° NNE 23:23:58 25° ENE 23:26:00 20° ESE visible
29 May 6.3 00:59:57 10° NNW 01:04:52 43° W 01:06:28 34° SW visible
29 May 7.5 22:47:07 10° NE 22:50:04 15° ENE 22:52:38 11° E visible
30 May 5.5 00:26:12 10° N 00:31:27 77° W 00:33:07 44° SSW visible
30 May 5.7 23:52:42 10° N 23:57:54 61° E 23:59:46 38° SSE visible
31 May 7.5 01:34:38 10° NW 01:38:05 18° WNW 01:40:15 14° WSW visible
31 May 6.4 23:19:26 10° NNE 23:24:13 35° E 23:26:26 25° ESE visible
01 Jun 6.8 01:00:18 10° NNW 01:04:51 31° W 01:06:54 23° WSW visible
01 Jun 7.1 22:46:31 10° NNE 22:50:25 21° ENE 22:53:06 14° ESE visible
02 Jun 6.0 00:26:24 10° NNW 00:31:29 54° W 00:33:34 33° SSW visible
02 Jun 7.6 22:14:31 10° NE 22:16:27 12° ENE 22:18:23 10° E visible
02 Jun 5.5 23:52:45 10° N 23:58:01 86° E 00:00:15 36° S visible
03 Jun 7.9 01:35:40 10° NW 01:37:56 13° WNW 01:40:12 10° W visible
03 Jun 5.9 23:19:20 10° N 23:24:25 49° E 23:26:55 27° SE visible
04 Jun 7.3 01:00:48 10° NNW 01:04:46 22° W 01:07:24 16° WSW visible
04 Jun 6.7 22:46:11 10° NNE 22:50:41 28° ENE 22:53:37 17° ESE visible
